Red Lodge, MT (59068)

9:52 PM MDT on July 23, 2016 (GMT -0600)
Lazy SL Ranches | | Change Station

Elev 5502 ft 45.22 °N, 109.30 °W | Updated 14 minutes ago

Partly Cloudy
Partly Cloudy
55.4 °F
Feels Like 55.4 °F
N
4.7
Wind Variable Wind from West

Today
High -- | Low -- °F
--% Chance of Precip.
Yesterday
High -- | Low -- °F
Precip. -- in
Pressure 30.15 in
Visibility 10.0 miles
Clouds Few 12000 ft
Dew Point 47 °F
Humidity 74%
Rainfall 0.02 in
Snow Depth Not available.
5:52 AM 8:54 PM
Waning Gibbous, 80% visible
METAR KCOD 240335Z AUTO 31006KT 10SM FEW120 22/00 A3015 RMK AO1
Pressure 30.15 in
Visibility 10.0 miles
Clouds Few 12000 ft
Dew Point 47 °F
Humidity 74%
Rainfall 0.02 in
Snow Depth Not available.
5:52 AM 8:54 PM
Waning Gibbous, 80% visible
METAR KCOD 240335Z AUTO 31006KT 10SM FEW120 22/00 A3015 RMK AO1

10-Day Weather Forecast

Almanac

Astronomy

Jul. 23, 2016 Rise Set
Actual Time
Civil Twilight
Nautical Twilight
Astronomical Twilight
Moon
Length of Visible Light
Length of Day
Tomorrow will be .
, % of the Moon is Illuminated

Today's Extremes

State Highs State Lows

Community

WunderPhotos

Upload Photos

1,927,022 photos uploaded!

WunderBlog® & News

Nearby

Air Quality

  Air Quality AQ Index Pollutant
Not available.

Snow Depth

Station Depth Elevation

Earthquake Activity

City Distance Mag. Time & Date
Minimum magnitude displayed is 2.5.

Coastal Water Temperatures

Place Temperature

Stations

Nearby Weather Stations

Station Location Temp. Windchill Dew Point Humidity Wind Precip. Elev Updated Type
                   

Watches & Warnings

There are currently no watches in effect.